Regional Weather Roundup
Issued by NWS

Home | Current Version | Previous Version | Graphics & Text | Print | Product List | Glossary On
Versions: 1 2 3 4 5 6 7 8 9 10 11 12 13 14 15 16 17 18 19 20 21 22 23 24 25 26 27 28 29 30 31 32 33 34 35 36 37 38 39 40 41 42 43 44 45 46 47 48 49 50
000
ASUS43 KLSX 221559
RWRMO

WEATHER SUMMARY FOR MISSOURI
NATIONAL WEATHER SERVICE SPRINGFIELD MO
1100 AM CDT FRI MAY 22 2015

NOTE: "FAIR" INDICATES FEW OR NO CLOUDS BELOW 12,000 FEET WITH NO
       SIGNIFICANT WEATHER AND/OR OBSTRUCTIONS TO VISIBILITY.
       CURRENT SKY AND/OR WEATHER CONDITIONS ARE NOT AVAILABLE FOR
       CHILLICOTHE AND FARMINGTON.

MOZ001>031-035>038-043-044-053-054-221700-
...NORTHERN AND WESTERN MISSOURI...

CITY           SKY/WX    TMP DP  RH WIND       PRES   REMARKS
KANSAS CTY INT CLOUDY    58  49  72 SW8       30.29R
KANSAS C DTWN  CLOUDY    61  47  59 SW5       30.29R
LEE`S SUMMIT   CLOUDY    60  48  64 SW6       30.30R
ST JOSEPH      CLOUDY    59  50  72 SW10      30.28R
KIRKSVILLE     PTSUNNY   69  49  48 W5        30.25R

$$
MOZ066>068-077>081-088>096-101>105-221700-
...SOUTHWEST MISSOURI...

CITY           SKY/WX    TMP DP  RH WIND       PRES   REMARKS
SPRINGFIELD    CLOUDY    62  46  55 SE12      30.29F
JOPLIN         CLOUDY    62  48  60 S8        30.29F

$$
MOZ032>034-039>042-045>050-055>058-069>072-221700-
...CENTRAL MISSOURI...

CITY           SKY/WX    TMP DP  RH WIND       PRES   REMARKS
COLUMBIA       MOSUNNY   68  48  48 W6        30.27R
JEFFERSON CITY MOSUNNY   67  49  52 W5        30.27S
ROLLA          MOSUNNY   64  52  64 SW7       30.27S
SEDALIA        CLOUDY    65  51  60 SW8       30.29R
OSAGE BEACH    CLOUDY    64  46  52 S7        30.30R

$$
MOZ051-052-059>065-221700-
...EAST CENTRAL MISSOURI...

CITY           SKY/WX    TMP DP  RH WIND       PRES   REMARKS
ST LOUIS INTL  MOSUNNY   70  50  49 VRB6      30.26R
SPIRIT OF STL  PTSUNNY   68  51  54 W7        30.25S
ST CHARLES     MOSUNNY   68  48  48 W6        30.25R

$$
MOZ072>076-082>087-097>100-106>115-221700-
...SOUTH CENTRAL AND SOUTHEAST MISSOURI...

CITY           SKY/WX    TMP DP  RH WIND       PRES   REMARKS
CAPE GIRARDEAU SUNNY     65  48  54 VRB6      30.29F
FARMINGTON     SUNNY     66  50  55 W3        30.32R
POPLAR BLUFF   SUNNY     64  47  53 CALM      30.30S
WEST PLAINS    MOSUNNY   62  45  53 SE5       30.32S

$$



USA.gov is the U.S. government's official web portal to all federal, state and local government web resources and services.